Tracking 28790 objects as of 19-Apr-2024
HD Live streaming from Space Station
objects crossing your sky now

ARIANE 1 DEB

Track ARIANE 1 DEB now!


NORAD ID: 19857
Int'l Code: 1985-056P
Perigee: 683.9 km
Apogee: 35,169.6 km
Inclination: 7.3 °
Period: 628.2 minutes
Semi major axis: 24297 km
RCS: 0.61 m2 (medium)
Launch date: July 2, 1985
Source: France (FR)
Launch site: FRENCH GUIANA (FRGUI)

Note: This is SATELLITE DEBRIS
Your satellite tracking list
Your tracking list is empty




NASA's NSSDC Master Catalog

Two Line Element Set (TLE):
1 19857U 85056P   24109.88253181 -.00002272  00000-0 -44767-1 0  9990
2 19857   7.3031 309.0039 7096473 279.8247 324.7411  2.29220784 79627
Source of the keplerian elements: AFSPC